Temperature
17 17 17 17 13 10 12 12 11 12 12 12 12 12 11 11 12 12 11 11 12 12 13 13 13 13 13 13 14 14 14 14 14 14 14 14 14 14 14 14 14 14 14 14 14 14 14 15 15
16 17 17 16 11 12 12 11 11 11 11 11 11 11 11 10 10 10 11 11 12 12 12 13 13 13 13 13 13 13 13 14 14 14 14 14 14 14 14 14 14 14 14 14 14 14 14 14 14
16 16 16 10 10 11 12 11 10 10 11 11 10 10 10 9 10 10 10 11 11 12 12 12 12 13 13 13 13 13 13 13 13 13 13 13 14 14 14 14 14 14 14 14 14 14 14 14 14
16 16 14 9 10 10 10 10 9 9 10 10 9 9 9 9 9 10 10 11 11 11 12 12 12 12 13 13 13 13 13 13 13 13 13 13 13 13 13 13 13 13 14 14 14 14 14 14 14
15 15 10 9 10 9 9 9 9 9 9 9 9 8 8 9 9 10 10 10 11 11 11 12 12 12 12 12 12 12 12 12 13 13 13 13 13 13 13 13 13 13 13 13 13 13 13 13 13
15 10 9 9 10 9 8 8 9 8 8 8 8 7 8 8 9 10 10 10 10 11 11 11 11 12 12 12 12 12 12 12 12 12 13 13 13 13 13 13 13 13 13 13 13 13 13 13 13
12 8 8 9 9 9 8 8 8 7 7 7 7 7 7 8 9 9 9 10 10 10 11 11 11 11 11 11 11 12 12 12 12 12 12 12 12 13 13 13 13 13 13 13 13 13 13 13 13
12 7 8 7 8 8 7 7 7 7 7 7 7 6 6 7 8 8 9 9 10 10 10 10 11 11 11 11 11 11 11 11 12 12 12 12 12 12 12 12 12 12 12 12 12 12 12 12 12
11 7 7 7 7 7 6 6 6 6 6 6 6 7 7 7 8 8 9 9 9 10 10 10 10 10 10 11 11 11 11 11 11 11 11 11 11 11 12 12 12 12 12 12 12 12 12 12 12
9 6 7 7 6 6 5 6 5 6 5 5 6 6 7 7 7 8 8 8 9 9 9 10 10 10 10 10 10 10 10 10 10 11 11 11 11 11 11 11 11 11 11 11 12 12 12 12 12
6 5 6 5 6 6 5 5 5 5 4 5 5 6 6 6 7 7 7 7 8 8 9 9 9 10 10 10 10 10 10 10 10 10 10 10 10 10 10 11 11 11 11 11 11 11 11 11 12
4 4 5 5 5 5 5 5 4 4 5 6 6 6 6 6 6 7 7 7 7 8 8 8 8 9 9 9 9 9 9 9 10 10 10 10 10 10 10 10 10 11 11 11 11 11 11 11 11
4 4 4 4 4 4 4 4 4 4 5 5 5 5 5 5 6 6 6 6 7 7 7 7 8 8 8 9 9 9 9 9 9 9 9 9 9 10 10 10 10 10 10 10 10 10 10 10 11
4 4 4 4 4 4 3 3 3 4 5 5 5 5 5 5 5 5 6 6 6 6 7 7 7 7 8 8 8 9 9 9 9 9 9 9 9 9 9 9 9 10 10 10 10 10 10 10 10
4 3 4 3 3 3 3 3 2 4 4 4 4 4 4 4 4 5 5 6 6 6 6 6 7 7 7 7 8 8 8 8 8 8 8 8 8 9 9 9 9 9 9 9 9 9 9 9 10
4 4 4 4 3 3 3 4 3 4 3 3 3 3 4 4 4 4 5 5 5 5 6 6 6 6 7 7 7 7 7 8 8 8 8 8 8 8 8 8 9 8 9 8 8 9 9 9 9
3 3 3 3 2 2 2 2 2 3 3 2 2 3 3 3 3 4 4 4 4 5 5 5 6 6 6 6 6 7 7 7 7 7 7 7 7 8 8 8 8 8 8 8 8 8 8 8 9
3 3 3 3 2 2 1 1 2 2 2 1 2 2 2 2 3 3 3 4 4 4 4 5 5 5 6 6 6 6 6 6 6 7 7 7 7 7 7 7 7 7 7 7 7 8 8 8 8
3 2 2 2 2 2 1 1 1 2 1 0 1 1 1 2 3 3 3 3 3 4 4 4 5 5 5 5 5 5 6 6 6 6 6 6 6 6 6 7 7 7 7 7 7 7 7 7 7
2 2 2 2 2 2 -0 0 1 0 -0 0 0 1 1 1 2 2 3 3 3 3 3 4 4 4 4 4 5 5 5 5 5 5 5 6 6 6 6 6 6 6 6 7 7 6 6 6 7
2 2 2 2 1 0 -0 1 1 0 0 0 1 1 1 1 1 2 2 2 3 3 3 3 3 4 4 4 4 4 4 4 5 5 5 5 5 5 6 6 6 6 6 6 6 6 6 6 6
2 2 2 1 1 -0 -0 1 1 -0 -1 -0 -0 0 1 1 1 1 2 2 2 2 3 3 3 3 3 3 3 3 3 4 4 4 4 4 5 5 5 5 5 5 5 6 6 6 6 6 6
1 1 1 0 -0 -1 -1 -1 1 -1 -0 -0 -1 -0 0 1 1 1 1 1 2 2 2 2 2 2 3 3 3 3 3 3 3 3 3 4 4 4 4 5 4 5 5 5 5 5 5 5 5
0 0 -0 -1 -2 -0 -1 -1 0 -1 -1 -1 -1 -0 -0 0 0 1 1 1 1 2 2 2 2 2 2 2 2 2 2 2 2 3 3 3 3 3 4 4 4 4 4 5 5 5 5 5 5
-0 0 1 1 -0 0 -1 -1 -1 -2 -2 -2 -2 -1 -1 -0 -0 0 0 1 1 1 1 1 1 1 2 2 2 2 2 2 2 2 2 2 3 3 3 3 3 4 4 4 4 4 4 4 4
-1 0 1 1 1 -1 -2 -2 -1 -2 -2 -2 -2 -1 -1 -1 -1 -0 -0 -0 0 0 0 1 1 1 1 1 1 1 1 1 1 1 2 2 2 2 2 3 3 3 3 3 4 4 4 4 4
-1 -2 -2 -2 -3 -3 -2 -3 -3 -2 -2 -2 -2 -2 -1 -1 -1 -1 -0 -0 -0 -0 -0 -0 0 0 1 1 1 1 1 1 1 1 1 1 1 2 2 2 2 3 3 3 3 3 4 4 4
-2 -3 -3 -2 -1 -1 -1 -2 -2 -2 -2 -3 -3 -2 -1 -1 -1 -1 -1 -1 -1 -1 -1 -0 -0 -0 -0 0 0 0 0 1 1 1 1 1 1 1 1 2 2 2 2 2 3 3 3 3 4
-3 -3 -4 -4 -3 -2 -1 -1 -2 -3 -3 -4 -3 -2 -2 -1 -2 -2 -2 -1 -1 -1 -1 -1 -1 -1 -1 -1 -1 -0 -0 0 0 0 0 0 0 1 1 1 1 2 2 2 2 2 3 3 3
-3 -4 -4 -2 -3 -5 -4 -1 -3 -4 -4 -4 -3 -2 -2 -2 -2 -2 -2 -2 -2 -2 -2 -1 -1 -1 -1 -1 -1 -1 -1 -1 -0 -0 -0 -0 0 0 0 1 1 1 1 2 2 2 2 2 3
Wind_Speed
12 7 3 4 6 5 1 2 1 0 0 1 2 2 4 3 2 2 2 5 7 6 5 3 3 3 5 6 7 8 8 8 9 9 10 10 10 10 11 11 12 12 13 13 13 13 14 14 14
6 3 5 6 5 2 3 2 2 1 1 1 3 4 4 2 2 2 3 7 8 6 5 4 4 4 5 6 7 7 8 8 8 9 9 10 10 10 10 11 12 12 12 12 13 13 13 13 13
3 5 5 5 4 5 4 2 2 1 2 3 3 3 2 1 1 1 4 6 7 8 7 5 4 4 5 6 6 7 7 7 8 8 8 9 9 10 10 11 11 11 12 12 12 12 12 12 12
4 5 6 5 3 3 2 1 1 1 3 4 3 2 1 3 1 2 4 5 7 8 9 7 5 5 5 6 6 6 7 7 7 7 8 8 8 9 10 10 10 10 11 11 11 11 11 11 11
5 5 5 2 3 2 0 1 1 2 1 2 2 2 0 2 4 4 4 5 5 7 9 8 8 7 5 5 6 6 6 6 7 7 7 8 8 9 9 9 9 9 9 10 10 10 10 10 10
5 5 4 3 4 1 0 1 2 2 1 2 2 1 1 2 5 4 4 4 5 6 9 9 8 9 8 5 5 6 6 6 6 7 7 7 8 9 9 9 8 8 9 9 9 9 9 9 9
5 5 4 4 3 2 0 1 2 2 1 0 0 1 1 3 5 4 3 4 5 7 8 9 8 8 8 8 6 5 6 6 6 6 7 7 8 8 8 8 8 8 8 8 8 8 8 8 8
4 5 3 2 3 3 1 2 2 2 1 1 2 2 2 4 4 3 3 4 5 6 8 8 8 8 8 7 7 6 5 6 6 6 6 7 8 7 7 7 7 7 7 7 7 7 7 7 7
4 4 3 4 5 2 1 2 2 2 2 1 1 0 2 1 2 3 3 4 5 6 7 7 7 8 7 6 6 7 6 6 6 6 6 7 6 6 6 6 6 6 6 6 6 6 7 7 7
5 3 4 1 2 2 2 1 0 1 1 1 2 3 3 2 2 3 3 3 4 4 5 6 6 6 6 5 5 6 6 5 5 5 5 5 6 5 5 5 5 6 6 6 6 6 6 6 6
4 3 2 2 2 2 2 1 1 2 2 3 3 2 2 2 1 1 1 2 2 2 3 4 5 5 5 4 4 4 4 5 5 5 5 5 5 5 5 4 4 5 6 6 6 6 5 5 4
4 3 2 2 3 2 1 1 0 1 4 2 2 1 0 1 0 1 1 2 3 2 3 4 5 4 4 4 3 3 3 3 4 4 4 4 3 3 3 3 3 3 3 4 4 4 3 3 3
3 2 2 2 3 2 2 1 2 4 5 2 0 0 1 1 2 1 1 2 2 2 3 3 4 3 3 3 3 3 3 3 3 3 3 2 2 1 2 1 2 2 2 3 3 3 3 2 3
2 2 1 2 2 1 1 2 1 5 2 1 0 1 2 2 2 2 2 3 3 3 3 3 3 3 2 2 2 2 2 2 3 3 3 2 1 1 1 1 1 1 1 2 2 2 1 1 2
2 2 3 2 1 1 1 5 4 4 0 1 3 3 3 3 2 3 3 3 3 4 4 2 2 2 1 1 1 2 2 2 2 2 2 3 1 1 1 1 0 0 1 2 2 2 2 1 1
3 3 2 2 1 1 0 7 4 1 2 4 5 4 4 4 4 4 3 3 3 3 4 3 2 2 1 0 1 1 1 2 2 1 1 2 3 1 0 1 1 1 1 2 1 1 1 0 0
4 1 3 4 1 1 2 8 5 1 2 5 5 5 4 4 5 5 3 3 3 3 3 3 3 2 1 0 0 1 1 1 1 1 1 1 2 2 1 1 1 2 1 1 1 1 0 0 1
2 2 3 5 2 1 4 10 9 4 4 6 5 4 4 4 6 5 3 3 3 3 2 2 3 3 2 1 1 1 1 1 1 1 1 1 1 2 1 1 1 2 1 1 1 1 0 1 0
3 2 5 6 3 3 7 12 13 7 4 6 5 4 5 6 5 3 3 3 3 3 3 2 3 3 2 1 1 1 1 1 1 1 1 1 1 2 2 1 1 1 2 3 2 1 1 0 0
2 2 4 5 2 3 7 11 10 5 4 5 5 5 5 5 5 4 3 3 3 3 3 3 3 4 2 1 2 2 2 2 2 2 2 2 2 2 2 1 1 2 2 3 2 2 1 1 1
2 3 4 4 4 2 6 8 4 2 2 3 3 3 3 4 4 4 4 4 4 3 3 3 4 4 3 2 1 1 1 1 2 2 2 2 3 2 2 3 2 2 3 4 4 4 3 2 2
4 2 2 3 3 4 3 5 6 4 4 4 4 3 4 4 3 3 3 4 4 4 4 4 4 4 3 2 1 2 2 3 4 3 3 3 3 3 3 3 3 3 3 4 5 4 3 4 4
2 2 1 1 1 3 1 2 8 3 5 6 5 4 4 3 2 3 3 3 4 4 3 3 4 4 4 3 2 2 3 4 3 3 4 4 4 4 4 4 4 3 3 4 5 5 4 4 4
1 2 3 3 3 3 3 3 7 3 4 5 5 5 5 3 3 3 3 3 4 4 4 4 4 5 5 4 3 2 4 5 4 4 4 4 4 4 4 5 5 4 4 4 6 6 6 6 5
4 4 4 5 3 5 1 3 8 5 4 4 5 7 6 4 4 4 4 4 4 5 5 5 5 6 5 5 4 3 4 5 5 5 5 5 4 4 5 5 5 5 5 5 5 6 7 7 7
0 3 4 3 5 6 3 5 7 4 4 4 4 5 5 5 4 4 4 4 4 5 5 5 5 6 6 5 5 4 4 4 4 5 5 5 6 6 6 6 7 7 6 6 6 6 7 7 8
2 1 2 4 0 4 6 7 8 3 4 4 5 5 5 6 6 5 5 4 5 5 5 5 6 7 7 6 6 5 4 4 5 5 5 5 5 6 7 6 7 7 7 7 7 6 8 7 8
2 5 4 3 1 5 7 5 5 7 6 5 6 6 7 7 7 6 5 5 5 5 6 6 6 6 7 7 6 6 5 5 5 5 5 6 6 6 6 6 7 7 7 7 7 7 7 8 8
3 3 3 3 3 3 5 7 4 5 4 5 6 6 6 6 7 7 6 6 6 6 6 6 6 7 7 7 6 6 6 6 5 5 6 6 6 6 6 6 6 7 7 7 7 8 8 9 9
3 5 5 3 4 4 3 8 3 4 4 4 6 7 6 6 7 7 7 7 6 7 7 7 7 7 7 7 7 6 6 6 5 6 6 6 6 5 5 5 6 6 6 6 7 8 8 9 9
Wind_Direction
341 350 48 54 58 58 175 233 205 316 357 359 22 91 119 117 126 146 332 349 349 345 343 334 24 76 107 103 98 96 94 90 87 86 86 84 82 80 80 79 78 77 77 78 78 80 79 79 79
340 7 52 59 94 129 247 232 209 237 207 65 41 59 79 67 35 40 343 338 348 355 359 352 36 71 98 109 106 101 100 96 91 89 88 87 84 81 80 78 77 76 75 77 77 77 78 79 79
7 44 76 78 117 177 200 203 214 333 36 53 51 39 79 66 25 356 329 342 4 9 10 7 44 65 87 99 106 107 106 102 96 92 91 89 86 84 82 79 77 76 76 76 77 77 77 78 79
58 48 57 81 172 210 193 175 191 64 36 43 78 59 54 35 11 329 346 19 22 14 16 14 40 56 78 99 100 104 108 103 96 92 92 92 88 86 84 81 79 77 77 78 77 78 78 77 81
55 76 73 73 222 226 236 350 124 96 70 25 75 115 2 3 17 20 23 30 33 17 20 25 34 43 60 89 103 101 98 101 98 96 94 95 91 88 87 85 82 80 79 81 79 79 79 78 79
56 70 103 200 223 231 343 347 93 78 72 38 63 118 201 16 21 12 21 27 34 30 26 30 35 40 46 62 93 99 95 96 99 97 95 94 92 91 89 87 84 81 80 83 80 79 82 81 80
101 100 153 182 201 235 286 43 104 114 98 347 107 127 288 341 348 357 20 29 34 35 30 27 32 35 39 47 54 87 93 89 91 96 94 92 90 90 89 86 84 82 80 79 78 77 82 83 84
106 107 117 174 184 226 10 67 57 76 156 15 96 146 250 293 333 5 31 40 36 32 29 22 24 29 32 41 47 53 78 88 90 90 92 93 93 93 91 86 82 79 79 79 77 75 79 83 86
76 84 179 202 190 206 88 84 18 23 90 26 7 264 295 333 34 40 35 24 20 19 16 19 18 23 25 35 46 49 60 73 83 86 87 94 94 95 94 85 82 76 72 75 79 75 75 81 88
67 138 203 178 165 153 118 113 111 62 44 324 332 347 8 55 78 64 31 11 1 356 357 10 11 17 22 30 40 45 50 56 67 77 81 91 99 97 92 90 83 77 72 73 72 69 69 77 89
70 140 130 51 47 94 121 83 68 141 243 239 253 291 347 49 62 60 14 334 318 327 349 359 0 8 16 19 34 41 45 48 52 65 79 88 95 92 86 84 77 73 70 68 64 57 66 86 97
85 56 75 70 45 62 94 123 22 207 239 263 227 191 310 339 246 268 286 312 325 336 332 341 358 360 6 9 22 40 42 45 44 45 74 89 83 83 85 83 82 78 75 72 66 59 54 77 96
88 106 69 56 55 54 58 298 265 269 268 312 10 119 237 254 278 287 296 284 312 320 318 325 350 352 356 12 17 38 36 45 48 46 46 87 82 92 93 92 103 86 86 87 73 66 53 60 87
113 102 49 3 6 15 22 300 271 274 285 17 18 247 262 259 300 319 326 316 312 312 304 315 333 333 343 14 21 35 35 43 59 53 36 44 98 104 119 110 101 93 115 117 110 90 74 68 102
98 54 356 346 350 350 359 301 237 255 224 284 279 279 286 286 295 282 271 282 291 306 303 300 313 333 336 19 22 30 34 53 52 43 35 24 25 115 148 155 149 205 152 120 98 73 71 66 50
51 43 335 320 31 357 111 272 266 232 204 260 273 281 282 282 291 290 286 293 298 311 316 309 319 327 321 1 27 31 29 51 44 43 22 11 2 360 136 182 205 202 155 132 123 100 51 25 354
34 358 284 301 340 51 200 260 275 285 240 263 272 276 277 287 301 298 301 303 301 303 315 317 323 309 293 303 40 40 24 32 26 30 9 337 340 338 316 236 214 188 164 145 163 141 121 244 308
258 267 275 272 297 304 254 264 277 273 252 265 274 279 279 277 283 290 304 310 309 316 322 317 327 318 302 342 15 9 13 353 360 354 335 308 316 327 314 312 221 181 173 177 172 183 209 201 216
166 207 265 275 285 275 261 271 278 279 267 274 281 279 274 277 290 308 319 326 332 337 344 336 333 319 322 278 246 244 259 257 273 303 296 297 289 298 313 326 296 193 189 196 182 182 178 192 80
175 240 269 287 307 275 287 281 275 263 242 244 256 265 274 293 310 319 328 341 335 332 333 335 333 324 318 284 247 231 245 247 253 281 295 282 278 276 276 298 271 242 198 192 188 172 181 221 192
238 213 251 280 318 311 313 301 279 288 252 269 269 270 284 270 281 304 319 332 333 329 323 323 325 322 319 324 316 307 284 296 272 264 267 288 270 261 266 265 246 255 210 202 202 191 185 204 233
266 247 264 301 340 306 20 304 292 303 314 312 298 289 278 280 285 304 312 325 322 309 319 330 326 326 329 343 329 260 258 257 261 252 254 276 265 256 254 259 243 239 235 210 209 200 205 192 213
248 323 296 293 176 319 337 235 288 338 315 303 298 290 280 275 279 290 297 307 320 322 320 323 326 331 335 340 310 273 263 258 268 261 255 256 263 259 255 255 244 231 240 222 209 210 210 201 212
320 15 49 58 71 300 248 198 286 272 264 297 323 325 312 311 305 301 323 344 343 348 344 340 330 331 333 332 315 285 272 267 267 266 256 253 252 253 259 261 248 236 239 237 221 210 212 214 215
40 57 12 355 351 264 239 227 257 259 262 280 306 317 320 321 319 326 337 340 339 343 337 337 334 327 327 328 320 298 276 266 257 257 255 255 254 252 250 261 253 243 243 245 239 218 217 217 217
212 119 149 235 265 292 310 250 258 264 286 290 296 309 328 328 322 321 320 319 324 328 328 328 323 320 323 321 313 310 287 274 266 260 256 254 251 249 252 254 254 248 247 247 242 231 224 220 222
114 125 138 138 328 291 279 289 301 292 314 320 325 334 329 325 321 320 326 327 325 320 316 313 317 318 316 313 310 313 301 283 275 269 261 257 261 260 253 252 255 248 245 244 240 234 230 225 224
96 138 101 125 236 280 294 284 277 304 308 321 322 317 318 324 323 325 326 323 317 311 312 316 316 311 310 312 311 307 305 286 277 275 273 269 265 267 256 250 256 250 242 241 237 239 235 227 228
116 118 130 141 171 204 282 277 232 246 283 294 296 302 313 320 319 319 319 317 316 319 319 316 315 314 313 312 309 307 303 296 283 279 275 273 266 263 258 252 255 251 241 239 237 237 237 233 231
176 176 159 178 230 205 234 273 267 238 279 288 296 309 313 311 312 314 314 318 321 321 320 317 313 311 309 308 308 307 308 309 294 284 282 278 271 266 262 255 256 254 244 239 238 240 239 234 231
Height
1500 1502 1503 1506 1511 1526 1530 1528 1526 1525 1525 1525 1525 1525 1526 1529 1532 1537 1533 1531 1531 1532 1532 1533 1534 1535 1536 1537 1537 1537 1538 1538 1539 1539 1539 1540 1540 1541 1541 1542 1542 1542 1543 1543 1543 1544 1544 1544 1545
1501 1502 1505 1506 1519 1532 1531 1528 1527 1525 1525 1524 1524 1525 1526 1528 1530 1531 1529 1529 1530 1531 1532 1533 1534 1535 1535 1536 1537 1537 1538 1538 1539 1539 1540 1540 1541 1541 1542 1542 1543 1543 1543 1543 1544 1544 1545 1545 1546
1501 1503 1505 1512 1525 1529 1527 1525 1525 1525 1525 1524 1525 1526 1527 1529 1530 1530 1530 1529 1530 1531 1532 1532 1533 1534 1535 1536 1537 1537 1538 1538 1539 1540 1540 1540 1541 1541 1542 1542 1543 1543 1544 1544 1544 1545 1545 1546 1546
1502 1504 1507 1518 1525 1526 1525 1524 1524 1524 1524 1525 1526 1527 1528 1530 1530 1530 1529 1530 1530 1531 1532 1532 1533 1534 1535 1535 1536 1537 1538 1538 1539 1539 1540 1540 1541 1542 1542 1542 1543 1543 1544 1544 1545 1545 1546 1546 1547
1502 1504 1515 1526 1525 1524 1524 1524 1524 1524 1525 1526 1526 1527 1528 1530 1529 1529 1529 1529 1530 1530 1531 1532 1533 1534 1534 1535 1536 1536 1537 1538 1539 1539 1540 1540 1541 1541 1542 1542 1543 1543 1544 1544 1545 1545 1546 1546 1547
1503 1506 1522 1526 1523 1524 1524 1523 1524 1524 1525 1526 1527 1527 1527 1528 1528 1528 1529 1529 1530 1530 1531 1531 1532 1533 1534 1534 1535 1536 1536 1537 1538 1539 1539 1540 1540 1541 1541 1542 1543 1543 1544 1544 1545 1545 1546 1546 1547
1504 1513 1522 1523 1524 1524 1524 1524 1524 1525 1526 1527 1527 1527 1527 1527 1527 1528 1528 1529 1529 1530 1530 1531 1531 1532 1533 1533 1534 1535 1536 1536 1537 1538 1539 1539 1540 1540 1541 1542 1542 1543 1543 1544 1544 1545 1546 1546 1547
1505 1513 1523 1526 1525 1524 1524 1524 1525 1525 1526 1527 1527 1527 1526 1526 1526 1527 1528 1528 1529 1529 1529 1530 1531 1531 1532 1533 1533 1534 1535 1535 1536 1537 1538 1539 1539 1540 1540 1541 1542 1542 1543 1543 1544 1545 1545 1546 1547
1506 1518 1524 1524 1524 1524 1524 1524 1525 1526 1526 1526 1527 1527 1527 1526 1525 1526 1526 1527 1527 1528 1528 1529 1529 1530 1530 1531 1532 1533 1534 1534 1535 1536 1537 1538 1538 1539 1539 1540 1541 1541 1542 1543 1543 1544 1545 1545 1546
1509 1521 1521 1522 1522 1523 1524 1524 1525 1525 1526 1525 1525 1525 1525 1525 1524 1524 1524 1524 1525 1526 1527 1527 1528 1528 1529 1530 1530 1531 1532 1533 1534 1535 1535 1536 1537 1538 1538 1539 1540 1541 1541 1542 1542 1543 1544 1545 1545
1514 1520 1521 1522 1522 1522 1523 1525 1525 1525 1525 1524 1523 1523 1522 1523 1522 1522 1523 1524 1524 1524 1525 1525 1526 1526 1527 1528 1528 1529 1530 1531 1532 1533 1534 1535 1535 1536 1537 1538 1538 1539 1540 1540 1541 1542 1543 1544 1545
1518 1522 1522 1523 1523 1523 1523 1524 1525 1524 1523 1523 1523 1522 1521 1521 1520 1521 1521 1522 1523 1523 1523 1524 1524 1524 1525 1526 1526 1527 1528 1529 1530 1531 1532 1533 1533 1534 1535 1536 1537 1538 1538 1539 1540 1541 1542 1543 1544
1520 1522 1523 1523 1523 1523 1523 1524 1524 1521 1521 1521 1521 1520 1520 1519 1519 1520 1520 1521 1521 1521 1521 1522 1522 1522 1523 1524 1524 1525 1526 1527 1528 1529 1530 1531 1532 1533 1533 1534 1535 1536 1537 1538 1539 1540 1541 1542 1542
1521 1522 1523 1523 1523 1523 1523 1523 1523 1518 1519 1519 1519 1518 1518 1518 1518 1518 1518 1518 1518 1519 1519 1519 1519 1520 1520 1521 1522 1522 1523 1525 1526 1527 1528 1529 1530 1531 1532 1533 1533 1534 1535 1536 1537 1538 1539 1540 1541
1521 1523 1523 1523 1523 1523 1523 1522 1519 1517 1517 1517 1517 1517 1517 1516 1516 1516 1516 1516 1516 1516 1517 1517 1517 1517 1518 1518 1519 1519 1521 1522 1523 1525 1526 1527 1527 1528 1529 1530 1531 1532 1533 1534 1535 1536 1538 1538 1539
1523 1525 1526 1523 1523 1523 1526 1521 1516 1515 1515 1515 1514 1514 1514 1514 1514 1514 1514 1514 1514 1514 1514 1514 1515 1515 1515 1516 1517 1517 1518 1519 1520 1522 1523 1524 1525 1526 1527 1528 1529 1530 1531 1532 1533 1534 1535 1536 1537
1528 1530 1528 1526 1523 1523 1524 1520 1514 1514 1514 1513 1512 1512 1511 1511 1511 1511 1512 1512 1512 1512 1512 1512 1512 1512 1513 1513 1514 1515 1515 1516 1517 1518 1520 1521 1522 1523 1523 1525 1526 1527 1528 1529 1530 1531 1533 1534 1534
1530 1531 1530 1528 1525 1524 1524 1518 1513 1512 1512 1511 1510 1509 1508 1508 1508 1509 1509 1510 1510 1509 1509 1509 1509 1510 1510 1511 1511 1512 1512 1513 1514 1515 1516 1517 1518 1519 1520 1521 1523 1524 1525 1526 1528 1529 1530 1531 1532
1528 1530 1530 1527 1524 1524 1521 1516 1510 1509 1509 1508 1507 1506 1506 1505 1506 1507 1507 1507 1507 1507 1506 1507 1507 1507 1507 1507 1507 1508 1508 1509 1510 1511 1512 1514 1515 1516 1517 1517 1519 1521 1522 1523 1524 1526 1527 1528 1530
1528 1530 1530 1526 1524 1524 1522 1515 1508 1506 1506 1505 1504 1503 1503 1503 1503 1503 1504 1504 1504 1504 1504 1504 1504 1504 1504 1504 1505 1505 1505 1506 1506 1508 1508 1510 1511 1512 1513 1514 1515 1517 1518 1520 1521 1523 1523 1525 1527
1527 1529 1528 1527 1525 1524 1524 1512 1506 1504 1503 1503 1502 1501 1501 1501 1500 1501 1501 1501 1500 1500 1501 1500 1501 1501 1501 1502 1502 1502 1503 1503 1503 1503 1504 1505 1507 1508 1509 1510 1511 1513 1514 1515 1517 1519 1520 1521 1524
1525 1526 1525 1526 1528 1530 1528 1523 1507 1505 1503 1501 1500 1499 1499 1499 1499 1499 1498 1498 1498 1498 1499 1499 1499 1499 1498 1498 1498 1499 1498 1498 1498 1499 1500 1501 1502 1503 1504 1506 1507 1508 1509 1511 1513 1514 1516 1518 1519
1526 1526 1526 1527 1530 1533 1532 1531 1511 1508 1504 1500 1499 1498 1498 1497 1497 1497 1497 1497 1497 1497 1497 1497 1496 1496 1495 1495 1495 1495 1495 1495 1495 1496 1496 1497 1497 1498 1499 1501 1502 1503 1504 1506 1508 1510 1512 1513 1515
1527 1527 1529 1532 1534 1533 1530 1531 1515 1511 1505 1500 1498 1497 1496 1496 1496 1495 1495 1495 1495 1495 1495 1495 1494 1493 1492 1492 1492 1492 1491 1491 1491 1491 1492 1492 1493 1493 1495 1496 1497 1498 1499 1501 1503 1504 1506 1508 1510
1529 1531 1533 1532 1537 1530 1530 1528 1516 1506 1503 1501 1499 1497 1496 1495 1494 1493 1493 1492 1492 1492 1492 1491 1490 1489 1489 1488 1488 1488 1488 1487 1487 1487 1487 1487 1488 1488 1489 1491 1492 1493 1494 1496 1497 1499 1501 1503 1505
1532 1532 1535 1536 1535 1532 1532 1528 1511 1504 1502 1501 1499 1497 1495 1495 1494 1492 1492 1492 1491 1490 1490 1489 1488 1486 1485 1485 1484 1483 1483 1483 1482 1482 1482 1482 1483 1483 1485 1485 1486 1487 1489 1491 1492 1494 1496 1498 1499
1534 1538 1538 1544 1549 1548 1532 1525 1511 1502 1501 1499 1498 1497 1495 1494 1493 1491 1491 1490 1489 1488 1488 1487 1485 1483 1482 1481 1480 1479 1479 1478 1478 1477 1478 1477 1477 1478 1479 1479 1480 1481 1483 1485 1486 1488 1490 1492 1494
1534 1538 1543 1544 1541 1535 1529 1527 1515 1505 1501 1499 1498 1496 1495 1493 1492 1491 1490 1489 1488 1487 1486 1484 1482 1481 1480 1478 1476 1475 1475 1474 1473 1473 1472 1471 1471 1472 1473 1473 1474 1475 1477 1479 1480 1482 1484 1486 1487
1538 1540 1542 1545 1545 1542 1534 1518 1508 1506 1502 1501 1499 1497 1495 1493 1492 1490 1489 1488 1487 1485 1483 1481 1480 1478 1477 1475 1473 1472 1470 1469 1468 1467 1467 1466 1466 1466 1466 1467 1468 1469 1470 1472 1474 1475 1477 1479 1481
1535 1537 1540 1540 1542 1548 1542 1520 1504 1504 1501 1500 1498 1496 1494 1493 1491 1489 1488 1486 1484 1482 1480 1478 1477 1475 1473 1471 1469 1467 1466 1464 1463 1462 1461 1461 1460 1461 1461 1461 1462 1463 1464 1465 1467 1468 1470 1472 1473